GW1675 Weather Reports


Display with metric or nautical units.
time (UTC)temp
F
wind
direction
speed
MPH
gust
MPH
rain 1hr
in
rain 24hr
in
rain mn
in
humidity
%
barometer
mb
20260905233057 78 0 0.0 0.0 0.00 0.00 0.00 67 1021.0
20260905231559 79 121 0.0 1.0 0.00 0.00 0.00 67 1020.7
20260905230058 78 0 0.0 0.0 0.00 0.00 0.00 67 1020.8
20260905224559 78 0 0.0 1.0 0.00 0.00 0.00 67 1020.8
20260905223059 79 121 0.0 1.0 0.00 0.00 0.00 67 1020.7
20260905221556 79 121 1.0 2.0 0.00 0.00 0.00 67 1020.8
20260905220054 80 0 0.0 0.0 0.00 0.00 0.00 68 1020.6
20260905214604 80 0 0.0 0.0 0.00 0.00 0.00 68 1020.6
20260905213059 81 0 0.0 1.0 0.00 0.00 0.00 68 1020.6
20260905211558 82 121 1.0 1.0 0.00 0.00 0.00 68 1020.5
20260905210120 82 0 0.0 0.0 0.00 0.00 0.00 68 1020.3
20260905204602 83 0 0.0 0.0 0.00 0.00 0.00 68 1020.1
20260905203101 84 0 0.0 1.0 0.00 0.00 0.00 68 1020.0
20260905201558 84 121 0.0 3.0 0.00 0.00 0.00 68 1019.9
20260905200058 83 0 0.0 2.0 0.00 0.00 0.00 68 1019.8
20260905194607 83 121 1.0 4.0 0.00 0.00 0.00 68 1019.6
20260905193057 83 121 2.0 3.0 0.00 0.00 0.00 68 1019.5
20260905191602 83 121 2.0 4.0 0.00 0.00 0.00 68 1019.4
20260905190052 84 121 1.0 2.0 0.00 0.00 0.00 68 1019.5
20260905184623 84 121 2.0 5.0 0.00 0.00 0.00 68 1019.4
20260905183101 85 121 3.0 6.0 0.00 0.00 0.00 68 1019.5
20260905181559 85 121 2.0 7.0 0.00 0.00 0.00 68 1019.5
20260905180055 85 121 3.0 6.0 0.00 0.00 0.00 69 1019.4
20260905174626 86 121 4.0 9.0 0.00 0.00 0.00 69 1019.4
20260905173106 88 121 4.0 9.0 0.00 0.00 0.00 69 1019.4
20260905171601 88 121 5.0 8.0 0.00 0.00 0.00 69 1019.3
20260905170053 89 121 3.0 9.0 0.00 0.00 0.00 69 1019.2
20260905164559 91 121 4.0 7.0 0.00 0.00 0.00 70 1019.2
20260905163107 91 121 2.0 7.0 0.00 0.00 0.00 70 1019.2
20260905161554 91 121 2.0 6.0 0.00 0.00 0.00 70 1019.0
20260905160053 91 121 1.0 6.0 0.00 0.00 0.00 70 1019.0
20260905154616 90 121 2.0 7.0 0.00 0.00 0.00 70 1019.2
20260905153106 89 121 3.0 6.0 0.00 0.00 0.00 70 1018.9
20260905151550 88 121 3.0 6.0 0.00 0.00 0.00 70 1019.3
20260905150058 89 121 1.0 7.0 0.00 0.00 0.00 70 1019.5
20260905144555 88 121 3.0 5.0 0.00 0.00 0.00 70 1019.7
20260905143100 88 121 1.0 8.0 0.00 0.00 0.00 70 1019.8
20260905141554 88 121 1.0 8.0 0.00 0.00 0.00 70 1020.1
20260905140055 87 121 4.0 9.0 0.00 0.00 0.00 70 1020.4
20260905134552 87 121 3.0 7.0 0.00 0.00 0.00 70 1020.4
20260905133059 87 121 5.0 10.0 0.00 0.00 0.00 70 1020.5
20260905131604 87 121 5.0 11.0 0.00 0.00 0.00 70 1020.5
20260905130055 88 121 5.0 9.0 0.00 0.00 0.00 70 1020.6
20260905124554 89 121 3.0 7.0 0.00 0.00 0.00 70 1020.6
20260905123103 89 121 5.0 8.0 0.00 0.00 0.00 70 1020.6
20260905121602 89 121 3.0 9.0 0.00 0.00 0.00 70 1020.7
20260905120056 89 122 3.0 7.0 0.00 0.00 0.00 70 1020.7
20260905114555 89 122 4.0 8.0 0.00 0.00 0.00 70 1020.7
20260905113101 90 122 3.0 8.0 0.00 0.00 0.00 70 1020.6
20260905111644 89 122 6.0 10.0 0.00 0.00 0.00 70 1020.6
20260905110055 89 122 6.0 9.0 0.00 0.00 0.00 70 1020.5
20260905104559 87 122 5.0 9.0 0.00 0.00 0.00 70 1020.6
20260905103055 86 122 5.0 11.0 0.00 0.00 0.00 70 1020.5
20260905101600 86 122 5.0 8.0 0.00 0.00 0.00 70 1020.2
20260905100104 84 122 5.0 9.0 0.00 0.00 0.00 70 1019.9
20260905094556 86 122 1.0 4.0 0.00 0.00 0.00 70 1019.4
20260905093102 86 0 0.0 2.0 0.00 0.00 0.00 70 1019.3
20260905091551 84 122 0.0 9.0 0.00 0.00 0.00 70 1019.1
20260905090058 81 122 8.0 13.0 0.00 0.00 0.00 69 1018.8
20260905084604 79 160 6.0 10.0 0.00 0.00 0.00 69 1019.1
20260905083057 79 162 3.0 5.0 0.00 0.00 0.00 69 1019.9
20260905081553 78 162 1.0 5.0 0.00 0.00 0.00 69 1020.0
20260905080117 78 162 2.0 9.0 0.00 0.00 0.00 69 1020.5
20260905074557 78 162 4.0 9.0 0.00 0.00 0.00 69 1020.5
20260905073101 78 162 6.0 14.0 0.00 0.00 0.00 69 1020.2
20260905071555 82 180 4.0 6.0 0.00 0.00 0.00 70 1019.4
20260905064604 82 185 4.0 9.0 0.00 0.00 0.00 70 1018.0
20260905063056 80 188 5.0 8.0 0.00 0.00 0.00 69 1018.3
20260905061558 79 188 2.0 4.0 0.00 0.00 0.00 69 1018.4
20260905060048 80 188 0.0 1.0 0.00 0.00 0.00 69 1018.6
20260905054559 79 188 2.0 4.0 0.00 0.00 0.00 69 1018.3
20260905053108 79 0 0.0 6.0 0.00 0.00 0.00 69 1018.7
20260905051556 78 188 0.0 3.0 0.00 0.00 0.00 69 1018.4
20260905050108 78 188 1.0 2.0 0.00 0.00 0.00 69 1018.7
20260905044558 78 0 0.0 1.0 0.00 0.00 0.00 69 1018.8
20260905043102 79 188 0.0 2.0 0.00 0.00 0.00 69 1019.3
20260905041559 79 0 0.0 2.0 0.00 0.00 0.00 69 1019.2
20260905040107 80 188 1.0 4.0 0.00 0.00 0.00 70 1019.2
20260905034611 79 188 1.0 3.0 0.00 0.00 0.00 69 1018.8
20260905033115 80 0 1.0 1.0 0.00 0.00 0.00 70 1018.4
20260905031602 80 188 0.0 2.0 0.00 0.00 0.00 70 1018.2
20260905030104 80 188 1.0 2.0 0.00 0.00 0.00 70 1018.0
20260905024557 80 188 2.0 2.0 0.00 0.00 0.00 70 1017.8
20260905023111 79 0 0.0 1.0 0.00 0.00 0.00 70 1017.8
20260905021556 80 188 0.0 1.0 0.00 0.00 0.00 70 1017.8
20260905020055 80 188 0.0 1.0 0.00 0.00 0.00 70 1018.0
20260905014559 81 0 0.0 1.0 0.00 0.00 0.00 70 1018.1
20260905013056 81 0 0.0 0.0 0.00 0.00 0.00 70 1017.9
20260905011600 83 0 0.0 1.0 0.00 0.00 0.00 70 1018.2
20260905010107 85 188 0.0 4.0 0.00 0.00 0.00 71 1018.2
20260905004625 85 188 2.0 4.0 0.00 0.00 0.00 71 1018.1
20260905003104 84 188 2.0 4.0 0.00 0.00 0.00 71 1018.1
20260905001558 81 188 1.0 2.0 0.00 0.00 0.00 70 1018.4
20260905000135 80 188 1.0 1.0 0.00 0.00 0.00 70 1018.5
20260904234600 80 0 0.0 1.0 0.00 0.00 0.00 70 1018.5